EN

Hourly Weather Lagody

Today, 26 July, Monday

Time Temperature Precipitation Wind Pressure Humidity
00:00 +19°C° 0 mm 3 mps 748 mmHg 73%
01:00 +19°C° 0 mm 3 mps 748 mmHg 74%
02:00 +18°C° 0 mm 3 mps 748 mmHg 74%
03:00 +18°C° 0 mm 3 mps 748 mmHg 75%
04:00 +18°C° 0 mm 3 mps 748 mmHg 76%
05:00 +17°C° 0 mm 3 mps 748 mmHg 77%
06:00 +19°C° 0 mm 3 mps 748 mmHg 74%
07:00 +20°C° 0 mm 3 mps 748 mmHg 71%
08:00 +22°C° 0 mm 4 mps 748 mmHg 70%
09:00 +23°C° 0 mm 4 mps 748 mmHg 66%
10:00 +26°C° 0 mm 4 mps 748 mmHg 61%
11:00 +27°C° 0 mm 5 mps 748 mmHg 56%
12:00 +28°C° 0 mm 5 mps 748 mmHg 54%
13:00 +28°C° 0 mm 5 mps 748 mmHg 51%
14:00 +29°C° 0 mm 5 mps 748 mmHg 48%
15:00 +28°C° 0.1 mm 5 mps 747 mmHg 56%
16:00 +26°C° 0.1 mm 4 mps 747 mmHg 64%
17:00 +25°C° 0.1 mm 4 mps 747 mmHg 72%
18:00 +23°C° 0.2 mm 4 mps 747 mmHg 76%
19:00 +22°C° 0.2 mm 3 mps 747 mmHg 79%
20:00 +21°C° 0.2 mm 3 mps 747 mmHg 83%
21:00 +21°C° 0 mm 3 mps 746 mmHg 83%
22:00 +20°C° 0 mm 4 mps 746 mmHg 83%
23:00 +20°C° 0 mm 4 mps 746 mmHg 83%

Tomorrow, 27 July, Tuesday

Time Temperature Precipitation Wind Pressure Humidity
00:00 +19°C° 0.1 mm 4 mps 746 mmHg 86%
01:00 +19°C° 0.1 mm 4 mps 745 mmHg 89%
02:00 +18°C° 0.1 mm 3 mps 745 mmHg 92%
03:00 +18°C° 0.3 mm 3 mps 745 mmHg 93%
04:00 +18°C° 0.3 mm 3 mps 745 mmHg 94%
05:00 +19°C° 0.3 mm 3 mps 745 mmHg 95%
06:00 +19°C° 0.2 mm 4 mps 745 mmHg 91%
07:00 +20°C° 0.2 mm 4 mps 745 mmHg 88%
08:00 +21°C° 0.2 mm 4 mps 745 mmHg 84%
09:00 +23°C° 0 mm 4 mps 745 mmHg 78%
10:00 +26°C° 0 mm 4 mps 745 mmHg 72%
11:00 +27°C° 0 mm 4 mps 745 mmHg 66%
12:00 +28°C° 0.1 mm 4 mps 745 mmHg 64%
13:00 +28°C° 0.1 mm 3 mps 744 mmHg 62%
14:00 +29°C° 0.1 mm 3 mps 744 mmHg 60%
15:00 +27°C° 3.3 mm 3 mps 744 mmHg 70%
16:00 +25°C° 3.3 mm 3 mps 744 mmHg 80%
17:00 +23°C° 3.3 mm 2 mps 744 mmHg 90%
18:00 +21°C° 0.8 mm 2 mps 744 mmHg 91%
19:00 +21°C° 0.8 mm 2 mps 744 mmHg 92%
20:00 +21°C° 0.8 mm 2 mps 744 mmHg 93%
21:00 +20°C° 0 mm 2 mps 744 mmHg 93%
22:00 +20°C° 0 mm 2 mps 744 mmHg 93%
23:00 +19°C° 0 mm 2 mps 744 mmHg 93%

Day after tomorrow, 28 July, Wednesday

Time Temperature Precipitation Wind Pressure Humidity
00:00 +19°C° 0 mm 2 mps 744 mmHg 93%
01:00 +18°C° 0 mm 2 mps 744 mmHg 93%
02:00 +18°C° 0 mm 3 mps 744 mmHg 94%
03:00 +18°C° 0 mm 2 mps 744 mmHg 94%
04:00 +18°C° 0 mm 2 mps 744 mmHg 93%
05:00 +18°C° 0 mm 2 mps 744 mmHg 93%
06:00 +19°C° 0 mm 2 mps 744 mmHg 89%
07:00 +21°C° 0 mm 2 mps 744 mmHg 85%
08:00 +23°C° 0 mm 2 mps 744 mmHg 81%
09:00 +24°C° 0 mm 2 mps 745 mmHg 75%
10:00 +26°C° 0 mm 2 mps 745 mmHg 69%
11:00 +27°C° 0 mm 2 mps 745 mmHg 63%
12:00 +28°C° 0 mm 2 mps 745 mmHg 60%
13:00 +29°C° 0 mm 2 mps 744 mmHg 57%
14:00 +29°C° 0 mm 3 mps 744 mmHg 54%
15:00 +29°C° 0 mm 2 mps 744 mmHg 55%
16:00 +29°C° 0 mm 1 mps 744 mmHg 56%
17:00 +29°C° 0 mm 1 mps 743 mmHg 57%
18:00 +27°C° 0.1 mm 1 mps 743 mmHg 64%
19:00 +25°C° 0.1 mm 2 mps 743 mmHg 71%
20:00 +23°C° 0.1 mm 2 mps 743 mmHg 78%
21:00 +23°C° 0.3 mm 2 mps 743 mmHg 81%
22:00 +21°C° 0.3 mm 2 mps 743 mmHg 84%
23:00 +21°C° 0.3 mm 1 mps 743 mmHg 88%

29 July, Thursday

Time Temperature Precipitation Wind Pressure Humidity
00:00 +21°C° 1 mm 1 mps 743 mmHg 89%
01:00 +20°C° 1 mm 1 mps 743 mmHg 90%
02:00 +20°C° 1 mm 1 mps 742 mmHg 92%
03:00 +19°C° 0.7 mm 2 mps 742 mmHg 93%
04:00 +19°C° 0.7 mm 2 mps 742 mmHg 94%
05:00 +18°C° 0.7 mm 2 mps 743 mmHg 96%
06:00 +19°C° 0.1 mm 2 mps 743 mmHg 94%
07:00 +20°C° 0.1 mm 1 mps 743 mmHg 92%
08:00 +21°C° 0.1 mm 1 mps 742 mmHg 90%
09:00 +22°C° 0.6 mm 1 mps 743 mmHg 84%
10:00 +24°C° 0.6 mm 2 mps 743 mmHg 77%
11:00 +25°C° 0.6 mm 3 mps 743 mmHg 71%
12:00 +26°C° 0.4 mm 3 mps 743 mmHg 69%
13:00 +26°C° 0.4 mm 4 mps 743 mmHg 66%
14:00 +26°C° 0.4 mm 5 mps 743 mmHg 64%
15:00 +26°C° 0.1 mm 5 mps 742 mmHg 63%
16:00 +27°C° 0.1 mm 5 mps 742 mmHg 62%
17:00 +27°C° 0.1 mm 4 mps 742 mmHg 61%
18:00 +25°C° 0 mm 4 mps 742 mmHg 65%
19:00 +24°C° 0 mm 3 mps 742 mmHg 69%
20:00 +21°C° 0 mm 3 mps 742 mmHg 73%
21:00 +20°C° 0 mm 3 mps 742 mmHg 72%
22:00 +20°C° 0 mm 2 mps 742 mmHg 71%
23:00 +19°C° 0 mm 2 mps 742 mmHg 69%

30 July, Friday

Time Temperature Precipitation Wind Pressure Humidity
00:00 +19°C° 0 mm 2 mps 742 mmHg 71%
01:00 +18°C° 0 mm 3 mps 742 mmHg 73%
02:00 +17°C° 0 mm 3 mps 742 mmHg 74%
03:00 +17°C° 0 mm 3 mps 742 mmHg 73%
04:00 +17°C° 0 mm 3 mps 742 mmHg 72%
05:00 +17°C° 0 mm 3 mps 742 mmHg 71%
06:00 +17°C° 0 mm 3 mps 742 mmHg 72%
07:00 +18°C° 0 mm 3 mps 742 mmHg 73%
08:00 +19°C° 0 mm 3 mps 742 mmHg 73%
09:00 +20°C° 0 mm 3 mps 742 mmHg 68%
10:00 +22°C° 0 mm 4 mps 742 mmHg 63%
11:00 +25°C° 0 mm 5 mps 742 mmHg 58%
12:00 +25°C° 0 mm 5 mps 742 mmHg 57%
13:00 +26°C° 0 mm 4 mps 742 mmHg 56%
14:00 +27°C° 0 mm 4 mps 741 mmHg 54%
15:00 +26°C° 0 mm 4 mps 741 mmHg 56%
16:00 +26°C° 0 mm 3 mps 741 mmHg 58%
17:00 +26°C° 0 mm 2 mps 740 mmHg 61%
18:00 +25°C° 0 mm 2 mps 740 mmHg 64%
19:00 +24°C° 0 mm 2 mps 740 mmHg 68%
20:00 +23°C° 0 mm 2 mps 740 mmHg 71%
21:00 +20°C° 0 mm 2 mps 740 mmHg 73%
22:00 +20°C° 0 mm 1 mps 740 mmHg 76%
23:00 +19°C° 0 mm 1 mps 740 mmHg 78%

31 July, Saturday

Time Temperature Precipitation Wind Pressure Humidity
00:00 +18°C° 0 mm 2 mps 740 mmHg 78%
01:00 +17°C° 0 mm 2 mps 740 mmHg 78%
02:00 +17°C° 0 mm 2 mps 740 mmHg 78%
03:00 +16°C° 0 mm 2 mps 740 mmHg 79%
04:00 +16°C° 0 mm 1 mps 740 mmHg 81%
05:00 +15°C° 0 mm 1 mps 740 mmHg 82%
06:00 +18°C° 0 mm 1 mps 740 mmHg 77%
07:00 +20°C° 0 mm 1 mps 740 mmHg 72%
08:00 +21°C° 0 mm 1 mps 740 mmHg 68%
09:00 +21°C° 0 mm 2 mps 740 mmHg 63%
10:00 +24°C° 0 mm 2 mps 740 mmHg 59%
11:00 +25°C° 0 mm 2 mps 740 mmHg 55%
12:00 +25°C° 0 mm 2 mps 740 mmHg 54%
13:00 +26°C° 0 mm 3 mps 740 mmHg 52%
14:00 +27°C° 0 mm 3 mps 740 mmHg 50%
15:00 +27°C° 0 mm 3 mps 739 mmHg 51%
16:00 +27°C° 0 mm 2 mps 739 mmHg 53%
17:00 +27°C° 0 mm 2 mps 739 mmHg 54%
18:00 +26°C° 0.2 mm 3 mps 739 mmHg 62%
19:00 +24°C° 0.2 mm 3 mps 739 mmHg 69%
20:00 +21°C° 0.2 mm 4 mps 738 mmHg 77%
21:00 +20°C° 0.5 mm 3 mps 739 mmHg 83%
22:00 +19°C° 0.5 mm 3 mps 739 mmHg 88%
23:00 +17°C° 0.5 mm 2 mps 739 mmHg 94%
Show more